• în România
  • Lista ţărilor
  • Pe 7 zile
  • Temperatura apei
  • Hartă satelitară
  • Meteo pe hartă
  • Widget-uri
  • user-avatar
    Intrare

    Meteo pe oră la Melbourne

    Astăzi, 19 Ianuarie, Joi

    Timp Temperatura Precipitaţii Vânt Presiune Umiditate
    00:00 +12°C° 0 mm 3 m/s 760 mmHg 78%
    01:00 +12°C° 0 mm 3 m/s 760 mmHg 80%
    02:00 +12°C° 0 mm 2 m/s 760 mmHg 82%
    03:00 +12°C° 0 mm 2 m/s 760 mmHg 84%
    04:00 +10°C° 0 mm 2 m/s 759 mmHg 90%
    05:00 +12°C° 0 mm 2 m/s 759 mmHg 85%
    06:00 +13°C° 0 mm 2 m/s 759 mmHg 81%
    07:00 +14°C° 0 mm 2 m/s 759 mmHg 76%
    08:00 +17°C° 0 mm 2 m/s 759 mmHg 65%
    09:00 +19°C° 0 mm 2 m/s 758 mmHg 53%
    10:00 +21°C° 0 mm 2 m/s 758 mmHg 44%
    11:00 +24°C° 0 mm 2 m/s 757 mmHg 38%
    12:00 +26°C° 0 mm 2 m/s 756 mmHg 33%
    13:00 +28°C° 0 mm 1 m/s 756 mmHg 27%
    14:00 +28°C° 0 mm 2 m/s 755 mmHg 27%
    15:00 +28°C° 0 mm 2 m/s 754 mmHg 27%
    16:00 +28°C° 0 mm 2 m/s 753 mmHg 30%
    17:00 +26°C° 0 mm 2 m/s 753 mmHg 36%
    18:00 +25°C° 0 mm 2 m/s 752 mmHg 42%
    19:00 +23°C° 0 mm 2 m/s 752 mmHg 48%
    20:00 +21°C° 0 mm 1 m/s 751 mmHg 54%
    21:00 +20°C° 0 mm 1 m/s 751 mmHg 59%
    22:00 +18°C° 0 mm 1 m/s 750 mmHg 65%
    23:00 +19°C° 0,1 mm 1 m/s 749 mmHg 65%

    Mâine, 20 Ianuarie, Vineri

    Timp Temperatura Precipitaţii Vânt Presiune Umiditate
    00:00 +19°C° 0,1 mm 1 m/s 748 mmHg 64%
    01:00 +19°C° 0,1 mm 1 m/s 747 mmHg 64%
    02:00 +19°C° 2,6 mm 1 m/s 746 mmHg 73%
    03:00 +19°C° 2,6 mm 1 m/s 746 mmHg 81%
    04:00 +18°C° 2,6 mm 1 m/s 745 mmHg 90%
    05:00 +19°C° 1,4 mm 1 m/s 745 mmHg 91%
    06:00 +18°C° 1,4 mm 2 m/s 745 mmHg 93%
    07:00 +18°C° 1,4 mm 3 m/s 745 mmHg 94%
    08:00 +18°C° 0,2 mm 3 m/s 745 mmHg 92%
    09:00 +19°C° 0,2 mm 4 m/s 746 mmHg 90%
    10:00 +19°C° 0,2 mm 4 m/s 747 mmHg 87%
    11:00 +19°C° 0,1 mm 5 m/s 747 mmHg 82%
    12:00 +19°C° 0,1 mm 5 m/s 748 mmHg 77%
    13:00 +19°C° 0,1 mm 6 m/s 749 mmHg 72%
    14:00 +19°C° 0 mm 6 m/s 749 mmHg 70%
    15:00 +19°C° 0 mm 6 m/s 750 mmHg 68%
    16:00 +19°C° 0 mm 6 m/s 750 mmHg 66%
    17:00 +17°C° 0,1 mm 5 m/s 751 mmHg 70%
    18:00 +16°C° 0,1 mm 5 m/s 752 mmHg 74%
    19:00 +15°C° 0,1 mm 5 m/s 753 mmHg 78%
    20:00 +15°C° 0 mm 4 m/s 754 mmHg 78%
    21:00 +14°C° 0 mm 4 m/s 755 mmHg 79%
    22:00 +14°C° 0 mm 4 m/s 756 mmHg 79%
    23:00 +14°C° 0 mm 3 m/s 756 mmHg 80%

    Poimâine, 21 Ianuarie, Sâmbătă

    Timp Temperatura Precipitaţii Vânt Presiune Umiditate
    00:00 +13°C° 0 mm 3 m/s 756 mmHg 80%
    01:00 +13°C° 0 mm 3 m/s 756 mmHg 81%
    02:00 +13°C° 0 mm 3 m/s 756 mmHg 82%
    03:00 +13°C° 0 mm 3 m/s 757 mmHg 83%
    04:00 +13°C° 0 mm 2 m/s 757 mmHg 84%
    05:00 +14°C° 0 mm 2 m/s 758 mmHg 82%
    06:00 +14°C° 0 mm 2 m/s 758 mmHg 80%
    07:00 +15°C° 0 mm 2 m/s 759 mmHg 78%
    08:00 +16°C° 0 mm 2 m/s 759 mmHg 72%
    09:00 +17°C° 0 mm 2 m/s 759 mmHg 66%
    10:00 +18°C° 0 mm 2 m/s 759 mmHg 60%
    11:00 +20°C° 0 mm 2 m/s 759 mmHg 56%
    12:00 +21°C° 0 mm 2 m/s 759 mmHg 51%
    13:00 +23°C° 0 mm 2 m/s 759 mmHg 47%
    14:00 +22°C° 0 mm 3 m/s 759 mmHg 47%
    15:00 +24°C° 0 mm 3 m/s 759 mmHg 47%
    16:00 +24°C° 0 mm 3 m/s 758 mmHg 47%
    17:00 +22°C° 0 mm 3 m/s 759 mmHg 52%
    18:00 +20°C° 0 mm 3 m/s 759 mmHg 58%
    19:00 +19°C° 0 mm 2 m/s 759 mmHg 63%
    20:00 +18°C° 0 mm 2 m/s 760 mmHg 71%
    21:00 +16°C° 0 mm 2 m/s 760 mmHg 79%
    22:00 +15°C° 0 mm 2 m/s 761 mmHg 86%
    23:00 +14°C° 0 mm 2 m/s 761 mmHg 89%

    22 Ianuarie, Duminică

    Timp Temperatura Precipitaţii Vânt Presiune Umiditate
    00:00 +13°C° 0 mm 1 m/s 761 mmHg 92%
    01:00 +13°C° 0 mm 1 m/s 760 mmHg 95%
    02:00 +12°C° 0 mm 1 m/s 760 mmHg 95%
    03:00 +12°C° 0 mm 1 m/s 760 mmHg 96%
    04:00 +12°C° 0 mm 1 m/s 760 mmHg 96%
    05:00 +13°C° 0 mm 1 m/s 760 mmHg 90%
    06:00 +15°C° 0 mm 1 m/s 760 mmHg 83%
    07:00 +16°C° 0 mm 1 m/s 760 mmHg 77%
    08:00 +20°C° 0 mm 1 m/s 760 mmHg 67%
    09:00 +23°C° 0 mm 1 m/s 760 mmHg 57%
    10:00 +26°C° 0 mm 1 m/s 760 mmHg 46%
    11:00 +28°C° 0 mm 1 m/s 760 mmHg 42%
    12:00 +30°C° 0 mm 1 m/s 759 mmHg 37%
    13:00 +32°C° 0 mm 1 m/s 759 mmHg 32%
    14:00 +32°C° 0 mm 2 m/s 758 mmHg 32%
    15:00 +32°C° 0 mm 2 m/s 757 mmHg 31%
    16:00 +34°C° 0 mm 2 m/s 757 mmHg 31%
    17:00 +30°C° 0 mm 2 m/s 757 mmHg 39%
    18:00 +28°C° 0 mm 2 m/s 757 mmHg 48%
    19:00 +26°C° 0 mm 2 m/s 757 mmHg 57%
    20:00 +24°C° 0 mm 1 m/s 757 mmHg 61%
    21:00 +23°C° 0 mm 1 m/s 757 mmHg 64%
    22:00 +22°C° 0 mm 1 m/s 757 mmHg 68%
    23:00 +21°C° 0 mm 1 m/s 757 mmHg 69%

    23 Ianuarie, Luni

    Timp Temperatura Precipitaţii Vânt Presiune Umiditate
    00:00 +20°C° 0 mm 1 m/s 756 mmHg 71%
    01:00 +20°C° 0 mm 1 m/s 756 mmHg 72%
    02:00 +20°C° 0 mm 1 m/s 755 mmHg 70%
    03:00 +20°C° 0 mm 1 m/s 755 mmHg 68%
    04:00 +21°C° 0 mm 1 m/s 754 mmHg 65%
    05:00 +22°C° 0 mm 1 m/s 754 mmHg 61%
    06:00 +23°C° 0 mm 2 m/s 754 mmHg 57%
    07:00 +24°C° 0 mm 2 m/s 754 mmHg 53%
    08:00 +26°C° 0 mm 2 m/s 754 mmHg 50%
    09:00 +28°C° 0 mm 2 m/s 754 mmHg 47%
    10:00 +29°C° 0 mm 2 m/s 754 mmHg 44%
    11:00 +30°C° 0,1 mm 2 m/s 754 mmHg 45%
    12:00 +30°C° 0,1 mm 2 m/s 753 mmHg 45%
    13:00 +31°C° 0,1 mm 1 m/s 753 mmHg 45%
    14:00 +30°C° 0,1 mm 1 m/s 753 mmHg 50%
    15:00 +29°C° 0,1 mm 1 m/s 752 mmHg 54%
    16:00 +27°C° 0,1 mm 1 m/s 752 mmHg 58%
    17:00 +26°C° 0,5 mm 1 m/s 752 mmHg 66%
    18:00 +25°C° 0,5 mm 1 m/s 752 mmHg 74%
    19:00 +24°C° 0,5 mm 1 m/s 753 mmHg 82%
    20:00 +23°C° 0,2 mm 1 m/s 753 mmHg 84%
    21:00 +23°C° 0,2 mm 1 m/s 753 mmHg 85%
    22:00 +20°C° 0,2 mm 0 m/s 753 mmHg 87%
    23:00 +22°C° 0,3 mm 1 m/s 753 mmHg 88%

    24 Ianuarie, Marţi

    Timp Temperatura Precipitaţii Vânt Presiune Umiditate
    00:00 +22°C° 0,3 mm 1 m/s 753 mmHg 89%
    01:00 +22°C° 0,3 mm 1 m/s 752 mmHg 89%
    02:00 +22°C° 0 mm 1 m/s 752 mmHg 91%
    03:00 +21°C° 0 mm 2 m/s 753 mmHg 92%
    04:00 +21°C° 0 mm 2 m/s 753 mmHg 93%
    05:00 +20°C° 0 mm 2 m/s 754 mmHg 91%
    06:00 +20°C° 0 mm 3 m/s 755 mmHg 90%
    07:00 +20°C° 0 mm 3 m/s 756 mmHg 88%
    08:00 +20°C° 0,1 mm 3 m/s 757 mmHg 83%
    09:00 +20°C° 0,1 mm 4 m/s 758 mmHg 77%
    10:00 +21°C° 0,1 mm 4 m/s 758 mmHg 72%
    11:00 +21°C° 0 mm 4 m/s 759 mmHg 65%
    12:00 +21°C° 0 mm 4 m/s 759 mmHg 58%
    13:00 +22°C° 0 mm 4 m/s 760 mmHg 51%
    14:00 +22°C° 0 mm 4 m/s 760 mmHg 51%
    15:00 +21°C° 0 mm 4 m/s 761 mmHg 50%
    16:00 +21°C° 0 mm 4 m/s 761 mmHg 50%
    17:00 +20°C° 0 mm 4 m/s 762 mmHg 53%
    18:00 +19°C° 0 mm 4 m/s 762 mmHg 57%
    19:00 +18°C° 0 mm 4 m/s 763 mmHg 61%
    20:00 +17°C° 0 mm 3 m/s 764 mmHg 65%
    21:00 +14°C° 0 mm 3 m/s 764 mmHg 70%
    22:00 +13°C° 0 mm 3 m/s 765 mmHg 74%
    23:00 +13°C° 0 mm 3 m/s 765 mmHg 76%
    Arată mai mult